STARLINK-1584 (46044 NORAD) Tracking and Keplerian Element Data

This shows tracking and keplerian element data for the satellite.

Feedback or suggestion? Click here.




ElementValue
Catalog46044
NameSTARLINK-1584
Epoch Orbit1875
Epoch Day339.09486206
Epoch Year2020
RAAN112.9592
Inclination53.0076
Eccentricity0.0002202
Argument of Perigee96.002
Mean Anonmoly264.1218
Mean Motion15.05594192
Decay Rate8.73E-06
L11 46044U 20055T 20339.09486206 .00000873 00000-0 79082-4 0 9990
L22 46044 53.0076 112.9592 0002202 96.0020 264.1218 15.05594192 18759

Live tracking and technical data element details for STARLINK-1584 (NORAD 46044). STARLINK-1584 can be tracked NOW for your location showing map with azimuth and elevation plus other details from your city location.

Track the satellite on the map from your city or location and see movement details for azimuth, elevation, latitude, longitude, range, height, and movement on the map or in text.







IsCatalogInMostPopularTable: catalog: 46044, numindb: 22
Update: records affected: 1



GetName: 46044 STARLINK-1584

Hit Count: updated at: Sat, 05 Dec 2020 04:53:48 GMT